FW5487 Weather Reports


Display with metric or nautical units.
time (UTC)temp
F
wind
direction
speed
MPH
gust
MPH
rain 1hr
in
rain 24hr
in
rain mn
in
humidity
%
barometer
mb
20260509203204 83 281 3.0 9.0 0.00 0.44 0.01 37 1000.0
20260509202704 83 262 5.0 10.0 0.00 0.44 0.01 36 1000.0
20260509202204 83 227 6.0 9.0 0.00 0.44 0.01 36 1000.0
20260509201704 83 249 3.0 9.0 0.00 0.44 0.01 36 1000.0
20260509201204 83 309 5.0 9.0 0.00 0.44 0.01 34 1000.0
20260509200704 82 254 3.0 8.0 0.00 0.44 0.01 38 1000.0
20260509200204 82 310 6.0 9.0 0.00 0.44 0.01 37 1000.0
20260509195704 82 290 5.0 8.0 0.00 0.44 0.01 38 1000.0
20260509195203 81 246 5.0 9.0 0.00 0.44 0.01 40 1000.0
20260509194703 82 259 4.0 9.0 0.00 0.44 0.01 38 1000.0
20260509194204 82 310 4.0 12.0 0.00 0.44 0.01 39 1000.0
20260509193703 81 320 6.0 13.0 0.00 0.44 0.01 40 1000.0
20260509193203 81 299 6.0 12.0 0.00 0.44 0.01 39 1000.0
20260509192703 81 247 3.0 8.0 0.00 0.44 0.01 42 1000.0
20260509192204 81 246 6.0 9.0 0.00 0.44 0.01 42 1000.0
20260509191704 81 290 2.0 8.0 0.00 0.44 0.01 41 1000.0
20260509191204 80 309 5.0 9.0 0.00 0.44 0.01 42 1000.0
20260509190704 80 287 6.0 13.0 0.00 0.44 0.01 42 1000.0
20260509190203 80 302 6.0 14.0 0.00 0.44 0.01 42 1000.0
20260509185704 80 323 6.0 10.0 0.00 0.44 0.01 43 1000.0
20260509184704 80 246 6.0 9.0 0.00 0.44 0.01 44 1000.0
20260509183703 80 309 5.0 9.0 0.00 0.44 0.01 43 1000.0
20260509182704 79 299 5.0 12.0 0.00 0.44 0.01 44 1000.0
20260509181704 78 311 9.0 14.0 0.00 0.44 0.01 44 1000.0
20260509181204 78 316 10.0 15.0 0.00 0.44 0.01 43 1000.0
20260509180703 78 326 7.0 12.0 0.00 0.44 0.01 44 1000.0
20260509180203 78 325 7.0 14.0 0.00 0.44 0.01 43 1000.0
20260509175204 78 320 6.0 16.0 0.00 0.44 0.01 44 1000.0
20260509174704 78 318 6.0 15.0 0.00 0.44 0.01 45 1000.0
20260509174204 77 306 9.0 15.0 0.00 0.44 0.01 45 1000.0
20260509173704 78 307 8.0 17.0 0.00 0.44 0.01 45 1000.0
20260509173204 78 290 7.0 13.0 0.00 0.44 0.01 46 1000.0
20260509172703 78 287 5.0 13.0 0.00 0.44 0.01 48 1000.0
20260509172204 78 305 5.0 13.0 0.00 0.44 0.01 49 1000.0
20260509171203 77 262 5.0 10.0 0.00 0.44 0.01 51 1000.0
20260509170703 77 277 4.0 9.0 0.00 0.44 0.01 57 1000.0
20260509170203 76 323 4.0 9.0 0.00 0.44 0.01 58 1000.0
20260509165203 75 248 5.0 8.0 0.00 0.44 0.01 60 1000.0
20260509164704 75 228 4.0 9.0 0.00 0.44 0.01 62 1000.0
20260509164204 75 254 5.0 9.0 0.00 0.44 0.01 62 1000.0
20260509163703 74 252 4.0 10.0 0.00 0.44 0.01 63 1000.0
20260509163203 73 238 5.0 10.0 0.00 0.44 0.01 65 1000.0
20260509162703 73 241 5.0 9.0 0.00 0.44 0.01 66 1000.0
20260509162204 73 244 4.0 8.0 0.00 0.44 0.01 67 1000.0
20260509161204 72 238 4.0 9.0 0.00 0.44 0.01 69 1000.0
20260509160704 71 217 4.0 8.0 0.00 0.44 0.01 69 1000.0
20260509160203 71 243 5.0 8.0 0.00 0.44 0.01 70 1000.0
20260509155704 70 242 6.0 9.0 0.00 0.44 0.01 71 1000.0
20260509155204 70 219 5.0 9.0 0.00 0.44 0.01 72 1000.0
20260509154703 70 247 5.0 12.0 0.00 0.44 0.01 73 1000.0
20260509154203 69 231 7.0 12.0 0.00 0.44 0.01 73 1000.0
20260509153703 69 236 7.0 10.0 0.00 0.44 0.01 74 1000.0
20260509152704 68 226 6.0 10.0 0.00 0.44 0.01 75 1000.0
20260509151704 67 223 8.0 13.0 0.00 0.44 0.01 76 1000.0
20260509151204 67 236 7.0 13.0 0.00 0.44 0.01 79 1000.0
20260509150704 66 234 8.0 12.0 0.00 0.44 0.01 80 1000.0
20260509150203 66 235 7.0 10.0 0.00 0.44 0.01 79 1000.0
20260509145704 66 230 8.0 12.0 0.00 0.44 0.01 80 1000.0
20260509145203 66 229 6.0 12.0 0.00 0.44 0.01 82 1000.0
20260509144704 65 228 6.0 9.0 0.00 0.44 0.01 84 1000.0
20260509144204 65 253 7.0 10.0 0.00 0.44 0.01 84 1000.0
20260509143704 65 235 5.0 8.0 0.00 0.44 0.01 87 1000.0
20260509142703 64 226 5.0 9.0 0.00 0.44 0.01 90 1000.0
20260509141703 63 244 3.0 7.0 0.00 0.44 0.01 94 1000.0
20260509141203 63 242 4.0 7.0 0.00 0.44 0.01 94 1000.0
20260509140704 62 218 4.0 8.0 0.00 0.44 0.01 95 1000.0
20260509140204 61 241 5.0 9.0 0.00 0.44 0.01 95 1000.0
20260509135703 61 221 6.0 9.0 0.00 0.44 0.01 95 1000.0
20260509135204 60 239 3.0 8.0 0.00 0.44 0.01 97 1000.0
20260509134703 60 232 3.0 7.0 0.00 0.44 0.01 97 1000.0
20260509134204 59 232 5.0 9.0 0.00 0.44 0.01 97 1000.0
20260509133704 59 222 5.0 9.0 0.00 0.44 0.01 97 1000.0
20260509133203 59 245 5.0 8.0 0.00 0.44 0.01 97 1000.0
20260509132704 58 226 5.0 12.0 0.00 0.44 0.01 97 1000.0
20260509131703 58 253 3.0 6.0 0.00 0.44 0.01 98 1000.0
20260509131204 58 267 3.0 8.0 0.00 0.44 0.01 98 1000.0
20260509130703 58 300 3.0 5.0 0.00 0.44 0.01 98 1000.0
20260509130204 57 256 3.0 9.0 0.00 0.44 0.01 98 1000.0
20260509125705 57 252 5.0 9.0 0.00 0.44 0.01 98 1000.0
20260509125203 57 245 6.0 9.0 0.00 0.44 0.01 98 1000.0
20260509124704 56 232 5.0 8.0 0.00 0.44 0.01 98 1000.0
20260509124203 56 231 5.0 10.0 0.00 0.44 0.01 98 1000.0
20260509123703 56 236 6.0 9.0 0.00 0.44 0.01 98 1000.0
20260509123204 56 234 3.0 7.0 0.00 0.44 0.01 98 1000.0
20260509122703 56 238 4.0 9.0 0.00 0.44 0.01 98 1000.0
20260509122203 56 220 5.0 7.0 0.00 0.44 0.01 98 1000.0
20260509121704 55 243 6.0 9.0 0.00 0.44 0.01 98 1000.0
20260509121204 56 227 5.0 9.0 0.00 0.44 0.01 98 1000.0
20260509120704 56 245 4.0 7.0 0.00 0.44 0.01 97 1000.0
20260509120203 56 225 5.0 7.0 0.00 0.44 0.01 97 1000.0
20260509115703 56 215 4.0 6.0 0.00 0.44 0.01 97 1000.0
20260509115204 56 223 3.0 5.0 0.00 0.44 0.01 97 1000.0
20260509114703 56 230 6.0 8.0 0.00 0.44 0.01 97 1000.0
20260509114204 56 221 7.0 8.0 0.00 0.44 0.01 97 1000.0
20260509113703 56 222 4.0 7.0 0.00 0.44 0.01 97 1000.0
20260509113204 56 216 5.0 7.0 0.01 0.44 0.01 97 1000.0
20260509112204 56 144 3.0 5.0 0.01 0.44 0.01 97 1000.0
20260509111204 56 114 0.0 0.0 0.01 0.44 0.01 97 1000.0
20260509110204 57 166 2.0 3.0 0.01 0.44 0.01 97 1000.0
20260509105704 57 183 2.0 5.0 0.01 0.44 0.01 97 1000.0
20260509105204 57 209 3.0 5.0 0.01 0.44 0.01 97 1000.0
20260509104703 57 254 1.0 3.0 0.01 0.44 0.01 97 1000.0
20260509104203 57 270 1.0 6.0 0.01 0.44 0.01 97 1000.0
20260509103704 57 318 1.0 6.0 0.01 0.44 0.01 97 1000.0
20260509102204 57 237 2.0 6.0 0.00 0.43 0.00 97 1000.0
20260509101704 57 237 2.0 6.0 0.00 0.43 0.00 97 1000.0
20260509101203 57 244 3.0 5.0 0.00 0.43 0.00 97 1000.0
20260509100704 57 252 2.0 7.0 0.00 0.43 0.00 97 1000.0
20260509100203 57 262 2.0 5.0 0.00 0.43 0.00 97 1000.0
20260509095704 57 266 2.0 6.0 0.00 0.43 0.00 97 1000.0
20260509095203 57 274 3.0 7.0 0.00 0.43 0.00 97 1000.0
20260509094204 58 281 2.0 6.0 0.00 0.43 0.00 97 1000.0
20260509093203 58 292 4.0 8.0 0.00 0.43 0.00 97 1000.0
20260509092703 58 292 3.0 6.0 0.00 0.43 0.00 97 1000.0
20260509092204 58 239 1.0 3.0 0.00 0.43 0.00 97 1000.0
20260509091704 58 229 3.0 6.0 0.00 0.43 0.00 97 1000.0
20260509091203 58 217 2.0 8.0 0.00 0.43 0.00 97 1000.0
20260509090703 58 231 4.0 8.0 0.00 0.43 0.00 97 1000.0
20260509090203 57 219 6.0 9.0 0.00 0.43 0.00 97 1000.0
20260509085703 57 234 6.0 9.0 0.00 0.43 0.00 97 1000.0
20260509085203 58 240 6.0 7.0 0.00 0.43 0.00 97 1000.0
20260509084704 58 227 5.0 8.0 0.00 0.43 0.00 97 1000.0
20260509084203 58 221 6.0 9.0 0.00 0.43 0.00 97 1000.0
20260509083703 58 227 4.0 8.0 0.00 0.43 0.00 97 1000.0
20260509082704 57 228 7.0 10.0 0.00 0.43 0.00 97 1000.0
20260509082204 58 232 6.0 10.0 0.00 0.43 0.00 97 1000.0
20260509081703 57 232 5.0 9.0 0.00 0.43 0.00 97 1000.0
20260509081204 57 227 7.0 13.0 0.00 0.43 0.00 97 1000.0
20260509080704 58 214 7.0 10.0 0.00 0.43 0.00 97 1000.0
20260509080204 58 218 6.0 9.0 0.00 0.43 0.00 97 1000.0
20260509075704 58 231 3.0 6.0 0.00 0.43 0.00 97 1000.0
20260509075203 58 264 3.0 6.0 0.00 0.43 0.00 97 1000.0
20260509074204 58 281 3.0 7.0 0.00 0.43 0.00 97 1000.0
20260509073203 58 250 3.0 7.0 0.00 0.43 0.00 97 1000.0
20260509072704 59 244 2.0 5.0 0.00 0.43 0.00 97 1000.0
20260509072204 59 266 4.0 7.0 0.00 0.43 0.00 97 1000.0
20260509071203 59 291 3.0 7.0 0.00 0.43 0.00 97 1000.0
20260509070204 59 260 3.0 6.0 0.00 0.43 0.00 97 1000.0
20260509065703 59 259 3.0 5.0 0.00 0.43 0.00 97 1000.0
20260509065204 59 240 3.0 5.0 0.00 0.43 0.00 97 1000.0
20260509064203 59 218 2.0 5.0 0.00 0.43 0.00 97 1000.0
20260509063703 59 237 2.0 5.0 0.00 0.43 0.00 97 1000.0
20260509063203 59 238 2.0 3.0 0.00 0.43 0.00 97 1000.0
20260509062704 59 228 3.0 6.0 0.00 0.43 0.00 97 1000.0
20260509062204 59 246 2.0 6.0 0.00 0.43 0.00 97 1000.0
20260509061204 59 232 3.0 6.0 0.00 0.43 0.00 97 1000.0
20260509060203 59 236 6.0 8.0 0.00 0.43 0.00 97 1000.0
20260509055703 59 223 4.0 7.0 0.00 0.43 0.00 96 1000.0
20260509055203 60 234 3.0 7.0 0.00 0.43 0.00 96 1000.0
20260509054704 60 263 2.0 2.0 0.00 0.43 0.00 97 1000.0
20260509054204 60 276 1.0 2.0 0.00 0.43 0.00 96 1000.0
20260509053704 60 246 3.0 5.0 0.00 0.43 0.00 97 1000.0
20260509053204 60 246 2.0 5.0 0.00 0.43 0.00 97 1000.0
20260509052703 60 268 2.0 5.0 0.00 0.43 0.00 96 1000.0
20260509052203 59 266 3.0 6.0 0.00 0.43 0.00 97 1000.0
20260509051704 59 293 4.0 7.0 0.00 0.43 0.00 96 1000.0
20260509051203 59 266 4.0 7.0 0.00 0.43 0.00 97 1000.0
20260509050703 60 269 3.0 7.0 0.00 0.43 0.00 97 1000.0
20260509050204 60 291 2.0 9.0 0.00 0.43 0.00 97 1000.0
20260509045204 59 291 2.0 3.0 0.00 0.43 0.43 96 1000.0
20260509044703 60 202 0.0 2.0 0.00 0.43 0.43 96 1000.0
20260509043704 59 252 2.0 3.0 0.00 0.43 0.43 96 1000.0
20260509043204 59 234 3.0 5.0 0.00 0.43 0.43 96 1000.0
20260509042703 59 244 3.0 3.0 0.00 0.43 0.43 96 1000.0
20260509042203 60 254 1.0 3.0 0.00 0.43 0.43 96 1000.0
20260509041704 59 233 3.0 3.0 0.00 0.43 0.43 96 1000.0
20260509041204 60 229 2.0 3.0 0.00 0.43 0.43 96 1000.0
20260509040703 60 224 1.0 2.0 0.00 0.43 0.43 96 1000.0
20260509035704 60 197 0.0 2.0 0.00 0.43 0.43 96 1000.0
20260509034703 59 161 5.0 6.0 0.00 0.43 0.43 96 1000.0
20260509033704 60 160 5.0 7.0 0.03 0.43 0.43 96 1000.0
20260509032703 60 151 5.0 7.0 0.05 0.43 0.43 96 1000.0
20260509032204 60 155 5.0 7.0 0.05 0.43 0.43 96 1000.0
20260509031704 60 125 3.0 7.0 0.06 0.43 0.43 96 1000.0
20260509031203 60 151 6.0 8.0 0.07 0.43 0.43 96 1000.0
20260509030703 60 166 6.0 8.0 0.07 0.43 0.43 96 1000.0
20260509025704 60 131 5.0 9.0 0.10 0.43 0.43 96 1000.0
20260509024203 60 153 5.0 8.0 0.12 0.42 0.42 96 1000.0
20260509023704 60 150 7.0 9.0 0.10 0.40 0.40 96 1000.0
20260509022704 61 142 3.0 5.0 0.12 0.38 0.38 96 1000.0
20260509022204 61 130 3.0 9.0 0.13 0.38 0.38 96 1000.0
20260509021704 61 145 5.0 6.0 0.14 0.37 0.37 96 1000.0
20260509021204 61 158 5.0 6.0 0.19 0.36 0.36 96 1000.0
20260509020204 61 39 2.0 6.0 0.21 0.35 0.35 96 1000.0
20260509015704 62 25 2.0 6.0 0.20 0.33 0.33 96 1000.0
20260509015203 62 14 2.0 9.0 0.21 0.32 0.32 96 1000.0
20260509014704 62 343 3.0 6.0 0.22 0.31 0.31 96 1000.0
20260509014203 62 349 2.0 5.0 0.23 0.30 0.30 96 1000.0
20260509013704 62 30 1.0 3.0 0.23 0.30 0.30 96 1000.0
20260509013204 62 39 2.0 5.0 0.21 0.28 0.28 96 1000.0
20260509012704 62 29 1.0 3.0 0.19 0.26 0.26 95 1000.0
20260509012203 62 154 2.0 3.0 0.18 0.25 0.25 95 1000.0
20260509011703 62 42 3.0 8.0 0.16 0.23 0.23 96 1000.0
20260509011204 62 46 5.0 9.0 0.10 0.17 0.17 95 1000.0
20260509010705 62 25 5.0 12.0 0.08 0.15 0.15 95 1000.0
20260509010203 62 9 8.0 18.0 0.07 0.14 0.14 95 1000.0
20260509005703 62 0 6.0 12.0 0.06 0.13 0.13 95 1000.0
20260509005206 62 6 5.0 9.0 0.04 0.11 0.11 94 1000.0
20260509004703 62 357 9.0 16.0 0.02 0.09 0.09 94 1000.0
20260509004204 62 5 8.0 22.0 0.00 0.07 0.07 94 1000.0
20260509003703 63 335 9.0 15.0 0.00 0.07 0.07 95 1000.0
20260509003203 63 356 5.0 12.0 0.00 0.07 0.07 94 1000.0
20260509002203 63 102 2.0 3.0 0.00 0.07 0.07 93 1000.0
20260509001704 63 112 1.0 3.0 0.00 0.07 0.07 93 1000.0
20260509001204 63 134 2.0 7.0 0.00 0.07 0.07 93 1000.0
20260509000703 63 136 4.0 7.0 0.00 0.07 0.07 93 1000.0
20260509000204 63 142 5.0 6.0 0.00 0.07 0.07 93 1000.0
20260508235703 63 153 5.0 7.0 0.00 0.07 0.07 92 1000.0
20260508235203 63 155 6.0 8.0 0.00 0.07 0.07 92 1000.0
20260508233703 64 147 5.0 8.0 0.01 0.07 0.07 91 1000.0
20260508233203 64 145 5.0 7.0 0.01 0.07 0.07 92 1000.0
20260508232704 64 134 3.0 5.0 0.02 0.07 0.07 91 1000.0
20260508232204 64 150 3.0 5.0 0.04 0.07 0.07 91 1000.0
20260508231703 64 147 4.0 7.0 0.05 0.07 0.07 90 1000.0
20260508231204 64 127 3.0 7.0 0.06 0.07 0.07 90 1000.0
20260508230204 63 159 6.0 8.0 0.07 0.07 0.07 91 1000.0
20260508225704 63 153 7.0 9.0 0.07 0.07 0.07 91 1000.0
20260508225203 63 159 7.0 9.0 0.07 0.07 0.07 91 1000.0
20260508224704 63 160 7.0 8.0 0.07 0.07 0.07 90 1000.0
20260508224204 63 154 7.0 10.0 0.06 0.06 0.06 90 1000.0
20260508223703 63 170 9.0 13.0 0.06 0.06 0.06 92 1000.0
20260508222703 65 159 2.0 5.0 0.05 0.05 0.05 84 1000.0
20260508222203 66 281 1.0 5.0 0.03 0.03 0.03 81 1000.0
20260508221704 66 322 3.0 8.0 0.02 0.02 0.02 83 1000.0
20260508221204 67 313 4.0 13.0 0.01 0.01 0.01 81 1000.0
20260508220704 68 309 8.0 14.0 0.00 0.00 0.00 73 1000.0
20260508220204 69 352 3.0 7.0 0.00 0.00 0.00 68 1000.0
20260508215704 70 1 3.0 6.0 0.00 0.00 0.00 66 1000.0
20260508215203 70 271 1.0 6.0 0.00 0.00 0.00 65 1000.0
20260508214703 71 18 0.0 2.0 0.00 0.00 0.00 64 1000.0
20260508214204 71 7 2.0 5.0 0.00 0.00 0.00 63 1000.0
20260508212704 71 28 3.0 7.0 0.00 0.00 0.00 61 1000.0
20260508212203 72 1 4.0 10.0 0.00 0.00 0.00 62 1000.0
20260508211204 73 346 2.0 5.0 0.00 0.00 0.00 60 1000.0
20260508210703 73 21 3.0 6.0 0.00 0.00 0.00 58 1000.0
20260508210204 74 29 3.0 5.0 0.00 0.00 0.00 57 1000.0
20260508205704 74 21 0.0 2.0 0.00 0.00 0.00 56 1000.0
20260508205203 74 38 0.0 0.0 0.00 0.00 0.00 55 1000.0
20260508204703 74 66 1.0 1.0 0.00 0.00 0.00 53 1000.0
20260508204203 74 90 0.0 5.0 0.00 0.00 0.00 53 1000.0
20260508203704 74 315 0.0 3.0 0.00 0.00 0.00 52 1000.0